This is the latest recevied weather packets stored in our database for station/object M0TUM-1. If no packets are shown the sender has not sent any weather packets the latest 10 day(s).
| Time | Temp. | Humidity | Pressure | Rain* | Wind** | Luminosity | Snow |
|---|---|---|---|---|---|---|---|
| 1777806453 | 16.67° C | 68% | 1008.8 hPa | 0 mm | - | 440 W/m² | - |
| 1777806150 | 16.67° C | 68% | 1008.8 hPa | 0 mm | - | 171 W/m² | - |
| 1777805846 | 17.78° C | 66% | 1008.7 hPa | 0 mm | - | 189 W/m² | - |
| 1777805544 | 17.78° C | 65% | 1008.7 hPa | 0 mm | - | 296 W/m² | - |
| 1777805241 | 17.78° C | 66% | 1008.8 hPa | 0 mm | - | 841 W/m² | - |
| 1777804636 | 17.78° C | 67% | 1008.5 hPa | 0 mm | - | 367 W/m² | - |
| 1777804334 | 17.78° C | 68% | 1008.8 hPa | 0 mm | - | 930 W/m² | - |
| 1777804030 | 17.22° C | 68% | 1008.6 hPa | 0 mm | - | 594 W/m² | - |
| 1777803728 | 16.67° C | 70% | 1008.7 hPa | 0 mm | - | 525 W/m² | - |
| 1777803423 | 16.11° C | 71% | 1008.8 hPa | 0 mm | - | 289 W/m² | - |
| 1777803121 | 16.67° C | 71% | 1008.6 hPa | 0 mm | - | 261 W/m² | - |
| 1777802818 | 16.11° C | 72% | 1008.8 hPa | 0 mm | - | 286 W/m² | - |
| 1777802516 | 16.11° C | 73% | 1008.7 hPa | 0 mm | - | 243 W/m² | - |
| 1777802213 | 16.11° C | 73% | 1008.7 hPa | 0 mm | - | 206 W/m² | - |
| 1777801912 | 16.67° C | 72% | 1008.5 hPa | 0 mm | - | 237 W/m² | - |
| 1777801306 | 16.67° C | 72% | 1008.8 hPa | 0 mm | - | 244 W/m² | - |
| 1777801001 | 16.67° C | 73% | 1008.8 hPa | 0 mm | - | 601 W/m² | - |
| 1777800699 | 15.56° C | 75% | 1008.7 hPa | 0 mm | - | 638 W/m² | - |
| 1777800394 | 16.11° C | 74% | 1008.7 hPa | 0 mm | - | 236 W/m² | - |
| 1777800091 | 16.11° C | 75% | 1008.9 hPa | 0 mm | - | 344 W/m² | - |
| 1777799786 | 15.56° C | 77% | 1008.6 hPa | 0 mm | - | 767 W/m² | - |
| 1777799484 | 15° C | 77% | 1008.5 hPa | 0 mm | - | 297 W/m² | - |
| 1777799179 | 15.56° C | 78% | 1008.8 hPa | 0 mm | - | 262 W/m² | - |
| 1777798875 | 15.56° C | 78% | 1008.9 hPa | 0 mm | - | 183 W/m² | - |
| 1777798571 | 15° C | 80% | 1008.9 hPa | 0 mm | - | 601 W/m² | - |
* Rain latest hour (hover to see other rain measurements)
** Current wind speed in m/s (hover to see current wind gust speed)